Temperature
7 7 7 7 7 7 7 7 7 6 6 7 6 7 7 7 7 7 7 7 7 7 7 7 7 7 7 7 7 7 7 7 7 7 7 7 7 7
6 6 6 6 6 6 6 6 6 6 5 6 6 6 6 6 6 6 6 6 6 6 6 6 6 6 6 6 6 6 6 6 6 6 6 6 6 6
6 6 6 6 6 6 6 6 5 5 5 5 5 5 5 5 5 5 5 6 6 6 6 6 6 6 6 6 6 6 5 5 5 5 5 5 5 5
5 5 5 5 5 5 5 5 5 5 4 4 4 4 4 4 4 5 5 5 5 5 5 5 5 5 5 5 5 5 5 5 5 5 5 5 5 5
5 5 5 5 4 4 4 4 4 4 4 4 4 4 4 4 4 4 4 4 4 4 4 4 4 4 4 4 4 4 4 4 4 4 4 4 4 4
4 4 4 4 4 4 3 3 3 3 3 3 3 3 3 3 2 3 3 3 3 4 4 4 4 4 4 4 3 3 3 3 3 3 3 3 3 3
4 4 3 3 3 3 3 3 2 2 2 2 2 2 2 2 2 2 2 2 2 2 2 2 3 3 3 3 3 2 2 2 2 2 3 3 2 3
3 3 3 3 3 2 2 2 2 2 2 1 1 1 1 1 1 0 0 0 0 1 1 1 1 2 2 2 2 2 2 2 2 2 2 2 2 2
2 2 2 2 2 2 2 2 2 1 1 1 0 0 0 -0 -0 -0 -0 -1 -0 -0 -0 0 0 0 1 1 1 1 1 1 1 1 1 1 1 1
2 2 2 2 2 1 1 1 1 1 1 0 0 -0 -0 -1 -1 -1 -1 -1 -1 -1 -1 -1 -1 -1 -0 0 0 0 0 0 0 1 1 1 1 1
2 1 1 1 1 1 1 0 0 0 -0 -0 -0 -1 -1 -1 -1 -2 -2 -2 -2 -2 -2 -2 -2 -1 -1 -1 -0 -0 -0 -0 -0 -0 0 0 0 0
1 1 1 0 0 0 -0 -0 -0 -1 -1 -1 -1 -1 -1 -1 -2 -2 -2 -3 -3 -3 -3 -3 -3 -3 -3 -2 -2 -1 -1 -1 -1 -1 -1 -0 -0 -0
1 0 0 0 -0 -0 -1 -1 -1 -1 -1 -2 -2 -2 -2 -2 -2 -2 -3 -3 -3 -3 -3 -3 -4 -4 -4 -4 -3 -2 -2 -2 -2 -1 -1 -1 -1 -1
0 0 -0 -0 -1 -1 -1 -1 -2 -2 -2 -2 -2 -2 -2 -2 -2 -3 -3 -3 -3 -3 -3 -4 -4 -4 -5 -5 -4 -3 -3 -3 -2 -2 -2 -2 -2 -2
-0 -0 -1 -1 -1 -1 -1 -2 -2 -2 -3 -3 -3 -3 -3 -3 -3 -3 -3 -3 -3 -3 -4 -4 -4 -4 -5 -5 -5 -4 -4 -3 -3 -3 -2 -2 -2 -2
-1 -1 -1 -1 -1 -2 -2 -2 -3 -3 -3 -3 -4 -4 -4 -4 -4 -4 -4 -4 -4 -4 -4 -4 -4 -5 -5 -4 -5 -4 -4 -4 -4 -3 -3 -3 -3 -3
-1 -1 -1 -2 -2 -2 -3 -3 -3 -3 -3 -4 -4 -4 -4 -4 -4 -4 -4 -5 -5 -5 -4 -4 -4 -5 -5 -5 -5 -4 -4 -4 -4 -4 -4 -4 -3 -3
-2 -2 -2 -2 -3 -3 -3 -3 -3 -4 -4 -4 -4 -5 -5 -5 -5 -5 -5 -5 -5 -5 -5 -5 -5 -5 -5 -5 -5 -5 -5 -5 -5 -4 -5 -4 -4 -3
-2 -2 -3 -3 -3 -3 -4 -4 -4 -4 -4 -5 -5 -5 -5 -5 -5 -5 -5 -6 -6 -6 -6 -6 -6 -6 -6 -6 -5 -5 -5 -5 -5 -5 -5 -5 -4 -4
-3 -3 -3 -3 -4 -4 -4 -4 -5 -5 -5 -5 -5 -5 -6 -6 -6 -6 -6 -6 -6 -6 -6 -6 -6 -6 -7 -7 -6 -5 -5 -5 -5 -5 -5 -5 -4 -4
-3 -3 -3 -4 -4 -4 -5 -5 -5 -5 -5 -6 -6 -6 -6 -6 -6 -6 -7 -7 -7 -7 -7 -6 -6 -6 -6 -6 -6 -6 -5 -5 -5 -5 -5 -5 -5 -4
-3 -3 -4 -4 -4 -5 -5 -5 -5 -5 -6 -6 -6 -6 -6 -6 -7 -7 -7 -7 -7 -7 -7 -7 -7 -6 -6 -7 -7 -6 -6 -5 -5 -5 -5 -5 -5 -5
-3 -4 -4 -4 -5 -5 -5 -5 -6 -6 -6 -6 -6 -6 -6 -7 -7 -7 -7 -7 -7 -7 -7 -7 -7 -7 -7 -7 -7 -7 -6 -6 -6 -5 -5 -5 -5 -5
Wind_Speed
4 4 4 3 3 4 4 4 5 6 6 5 4 3 4 5 6 7 8 8 9 11 12 13 14 14 14 14 14 15 16 16 16 16 16 17 17 17
3 3 3 3 3 3 4 4 5 6 6 4 4 5 5 5 7 8 8 10 10 11 12 13 14 14 13 14 15 15 16 16 17 17 17 17 17 17
2 3 3 3 3 3 3 3 4 4 6 5 5 6 7 7 7 8 8 9 9 10 12 13 13 13 13 14 15 16 16 16 16 17 17 17 17 17
3 3 3 3 3 3 3 3 3 4 5 7 6 5 7 7 8 8 7 8 8 9 11 12 12 13 14 14 15 15 15 15 16 16 16 16 16 17
3 3 3 3 3 3 4 4 4 4 5 6 6 5 6 6 7 7 8 7 8 9 10 10 11 12 13 13 14 14 14 15 15 15 15 15 15 16
2 3 3 3 4 4 4 4 4 4 5 5 6 6 5 6 6 6 7 7 7 7 8 9 10 11 12 12 12 12 12 13 14 14 14 14 15 15
2 2 2 2 3 4 3 4 4 4 4 5 5 5 5 5 5 6 7 8 8 6 6 7 7 7 8 9 10 11 11 12 13 13 14 14 15 16
2 2 2 2 2 3 4 4 5 5 5 5 5 6 7 6 6 6 7 7 6 5 7 9 7 7 7 8 9 11 12 12 13 13 14 14 15 16
2 2 1 2 3 3 3 3 4 5 6 6 7 7 8 7 8 8 8 8 9 8 8 8 7 8 7 9 11 10 11 12 13 14 14 14 15 16
2 2 2 2 2 3 3 4 4 4 5 5 6 7 7 8 8 8 8 9 9 7 7 8 8 8 9 8 9 10 11 12 13 14 15 15 15 16
2 2 2 2 2 3 3 4 4 4 4 5 6 6 8 9 7 5 6 6 7 7 5 6 7 8 9 8 7 9 11 12 13 15 15 15 15 15
1 1 2 2 3 4 4 4 4 4 5 5 5 5 6 6 6 5 5 6 6 5 3 4 6 6 5 5 6 7 9 11 14 14 15 14 14 10
2 1 1 2 3 4 4 4 4 5 4 4 4 5 5 4 5 5 5 5 6 6 5 4 5 5 5 6 7 8 8 9 9 10 12 13 13 11
2 2 1 2 3 4 3 3 5 4 3 3 4 4 4 5 5 6 7 7 7 8 9 7 6 7 7 9 8 7 8 8 9 9 8 11 11 12
2 1 2 2 3 2 3 4 4 2 2 3 4 4 4 5 5 5 6 6 7 8 8 8 7 7 8 9 9 9 9 8 8 7 8 8 8 8
2 2 2 2 2 2 3 2 2 2 3 3 4 4 5 5 5 5 5 6 6 6 5 7 7 8 9 10 9 10 9 7 7 8 9 9 8 7
2 2 2 2 2 2 2 2 2 2 3 3 4 4 5 5 5 5 5 5 5 6 7 6 7 7 8 9 8 9 9 9 8 8 8 9 8 8
4 3 3 3 3 2 2 2 2 2 3 3 4 4 4 5 5 5 5 5 6 6 7 7 7 7 6 5 7 8 8 8 8 8 8 8 10 8
5 4 3 3 3 3 3 3 3 3 3 3 3 4 4 5 5 5 5 5 6 6 7 6 6 6 7 8 4 5 7 9 9 9 8 8 9 9
5 4 4 4 3 3 3 3 3 3 3 3 4 4 4 4 5 5 5 6 7 7 7 6 6 6 7 8 7 7 8 8 8 8 8 8 8 10
5 5 4 4 4 4 3 3 4 4 4 4 4 4 4 4 5 5 5 7 7 6 7 7 7 9 7 6 6 7 7 7 8 7 7 7 7 6
5 5 4 4 4 4 4 3 4 4 4 4 4 4 4 4 5 6 5 6 6 7 8 7 7 6 5 6 7 9 9 8 8 7 6 5 4 4
5 5 5 5 4 4 4 4 4 4 4 4 4 4 4 4 5 5 5 5 6 7 7 7 7 6 6 6 7 7 9 9 7 6 5 5 6 7
Wind_Direction
260 261 262 263 260 262 260 255 260 264 263 264 265 266 291 292 298 294 291 291 283 279 280 282 283 283 279 278 280 282 283 283 280 276 275 274 271 272
267 261 264 266 263 265 264 263 260 260 264 272 279 291 297 293 295 293 289 288 278 276 277 279 280 279 279 281 282 282 281 280 278 275 275 275 273 274
264 260 263 265 261 261 265 264 261 260 265 277 278 285 287 291 293 292 288 285 282 277 279 278 278 279 280 282 282 280 280 279 278 276 275 274 274 277
259 259 265 268 269 268 265 262 261 264 265 276 283 284 286 290 290 290 292 289 287 285 283 281 279 279 281 282 281 280 280 280 278 276 276 275 276 278
260 262 267 272 275 274 272 268 267 266 264 268 278 284 287 292 295 294 292 292 296 294 288 283 282 283 283 284 284 282 281 281 279 277 277 277 278 279
272 268 273 272 275 279 276 274 273 272 268 269 277 285 288 292 294 297 299 301 300 299 295 295 292 287 282 283 285 286 283 282 281 280 281 280 280 281
273 274 282 292 297 290 286 288 286 280 281 279 282 287 288 296 295 298 296 301 298 293 301 300 298 292 289 286 284 285 287 287 288 287 287 285 285 284
275 285 293 294 306 312 312 314 305 288 285 283 283 285 292 297 297 294 296 299 294 300 305 299 296 293 293 291 290 292 294 293 292 292 291 290 289 287
278 294 309 322 318 318 321 316 308 305 294 286 284 289 294 297 297 294 292 291 288 296 302 291 293 294 297 297 298 294 294 297 298 296 293 292 291 288
278 283 286 310 328 322 314 313 313 315 308 296 288 291 295 296 290 290 292 292 289 288 291 286 294 297 300 296 295 298 299 300 299 298 296 295 293 289
269 283 287 297 326 316 305 306 309 318 332 323 312 308 311 310 302 291 289 290 292 293 293 282 294 304 298 288 291 296 299 298 299 299 297 295 295 292
263 283 301 310 321 312 296 295 301 313 319 318 317 319 317 318 316 297 286 285 292 290 289 292 294 310 303 294 303 307 304 300 300 299 297 295 297 294
255 275 299 320 319 318 307 298 300 308 309 310 315 321 325 325 323 316 302 284 281 278 289 299 290 293 285 296 303 301 303 306 306 303 302 298 296 294
256 273 297 317 311 312 315 321 318 314 307 309 313 320 323 324 322 317 309 296 281 276 283 285 278 283 287 291 293 299 305 304 303 302 305 304 298 293
252 277 296 303 303 304 317 323 317 309 306 304 308 313 314 312 312 313 312 303 294 287 284 280 278 281 278 279 286 295 304 305 301 302 305 303 298 296
236 238 257 275 283 302 309 310 308 311 306 300 305 308 310 311 313 316 313 316 309 304 298 291 280 278 279 278 280 287 294 294 301 305 303 298 295 290
211 223 238 252 265 281 294 299 303 303 302 305 306 310 313 315 314 317 312 311 306 308 314 316 309 293 278 277 279 283 290 293 296 303 304 300 297 294
208 224 230 239 253 267 278 284 286 292 298 302 303 307 311 313 314 315 313 310 310 312 313 316 321 316 302 273 251 276 289 296 303 304 300 297 297 301
218 228 233 239 249 257 263 270 278 286 291 290 294 301 306 308 311 312 314 314 312 312 313 316 318 315 312 311 295 256 286 300 303 302 299 294 291 297
223 229 235 239 244 250 255 262 270 278 280 284 289 294 298 302 306 310 312 313 311 312 313 316 316 314 305 301 299 297 291 291 296 298 301 299 292 290
221 228 234 236 240 244 250 254 258 266 274 279 282 287 291 294 298 302 306 310 313 313 314 314 312 307 296 292 293 299 307 301 289 291 298 303 305 308
222 226 231 234 237 239 243 247 253 260 268 272 279 284 287 288 290 296 302 307 310 310 309 310 313 314 307 301 303 307 312 318 316 305 290 284 299 310
221 224 228 230 231 233 237 242 247 255 261 268 275 280 285 287 290 292 298 303 307 310 312 314 318 318 312 305 307 311 317 323 326 333 330 326 307 299
Height
1467 1467 1466 1466 1466 1466 1466 1466 1467 1465 1463 1463 1463 1461 1461 1460 1459 1457 1457 1456 1455 1455 1454 1453 1453 1452 1452 1451 1450 1449 1449 1448 1447 1447 1447 1446 1445 1445
1463 1463 1463 1463 1462 1462 1462 1461 1461 1461 1459 1458 1458 1457 1456 1454 1453 1452 1451 1450 1449 1448 1447 1446 1446 1445 1444 1444 1443 1442 1441 1440 1440 1439 1439 1438 1437 1436
1459 1459 1459 1459 1458 1458 1457 1457 1456 1456 1454 1453 1453 1452 1451 1450 1448 1446 1445 1444 1442 1441 1441 1440 1439 1438 1437 1436 1435 1434 1433 1433 1432 1431 1431 1430 1429 1428
1456 1456 1455 1455 1454 1454 1453 1453 1452 1451 1450 1448 1448 1447 1446 1445 1443 1441 1440 1438 1437 1435 1435 1434 1432 1431 1430 1429 1427 1426 1426 1425 1424 1423 1423 1422 1421 1420
1453 1453 1452 1452 1451 1450 1449 1449 1448 1447 1446 1445 1443 1442 1441 1440 1438 1436 1435 1433 1431 1430 1429 1427 1426 1424 1423 1421 1420 1418 1417 1417 1416 1415 1414 1413 1412 1412
1450 1449 1449 1448 1448 1447 1446 1445 1444 1443 1442 1441 1439 1438 1436 1435 1433 1431 1429 1428 1426 1424 1423 1421 1419 1418 1416 1414 1413 1411 1410 1409 1408 1407 1406 1405 1404 1403
1447 1446 1445 1445 1444 1444 1443 1442 1441 1440 1438 1437 1435 1434 1432 1430 1429 1427 1425 1422 1420 1419 1417 1415 1413 1411 1409 1408 1406 1405 1403 1402 1401 1399 1398 1398 1397 1396
1444 1443 1442 1442 1441 1440 1439 1438 1437 1436 1435 1433 1431 1430 1428 1426 1425 1423 1421 1418 1415 1415 1412 1409 1408 1405 1403 1402 1400 1399 1397 1395 1394 1392 1391 1390 1389 1388
1441 1440 1439 1438 1438 1437 1435 1434 1433 1432 1431 1430 1428 1426 1424 1423 1421 1419 1417 1415 1412 1410 1407 1403 1402 1400 1398 1396 1394 1393 1391 1389 1387 1386 1384 1383 1382 1381
1438 1437 1436 1435 1434 1433 1432 1431 1429 1428 1427 1425 1424 1422 1420 1418 1417 1415 1413 1410 1407 1406 1404 1400 1397 1394 1392 1390 1388 1386 1385 1383 1381 1379 1378 1376 1375 1373
1435 1435 1434 1433 1432 1430 1429 1427 1426 1424 1423 1421 1419 1418 1416 1414 1412 1411 1408 1406 1402 1400 1399 1396 1392 1389 1386 1384 1383 1381 1379 1377 1375 1373 1371 1369 1368 1366
1433 1432 1431 1430 1429 1427 1426 1424 1422 1421 1419 1417 1416 1414 1412 1410 1408 1407 1404 1402 1399 1396 1395 1393 1389 1386 1381 1379 1378 1376 1373 1371 1369 1367 1365 1363 1361 1359
1430 1429 1428 1427 1425 1424 1422 1421 1419 1417 1416 1414 1412 1410 1408 1406 1404 1402 1401 1399 1396 1393 1392 1390 1386 1384 1381 1376 1372 1371 1369 1366 1363 1361 1359 1357 1356 1354
1427 1426 1425 1424 1422 1421 1419 1417 1416 1414 1412 1411 1409 1407 1404 1403 1401 1399 1397 1395 1392 1390 1388 1386 1383 1381 1377 1373 1369 1366 1364 1362 1359 1356 1354 1352 1350 1348
1424 1423 1422 1421 1419 1418 1416 1415 1413 1411 1410 1408 1406 1404 1402 1400 1397 1395 1393 1391 1388 1386 1384 1381 1379 1377 1374 1371 1366 1362 1359 1356 1354 1352 1349 1347 1344 1342
1421 1420 1419 1418 1417 1415 1413 1412 1410 1409 1407 1405 1403 1401 1399 1397 1395 1392 1389 1386 1384 1381 1380 1377 1375 1373 1369 1366 1363 1359 1356 1353 1350 1348 1345 1342 1340 1338
1418 1417 1416 1415 1414 1412 1411 1409 1408 1406 1404 1402 1400 1398 1396 1394 1392 1390 1387 1384 1381 1378 1375 1373 1371 1368 1365 1363 1359 1355 1352 1349 1346 1343 1340 1337 1335 1333
1415 1413 1413 1412 1410 1409 1408 1406 1405 1403 1401 1400 1398 1396 1393 1391 1389 1387 1384 1382 1379 1375 1372 1369 1366 1363 1361 1358 1356 1352 1349 1345 1342 1340 1337 1333 1329 1327
1411 1410 1409 1408 1407 1406 1405 1403 1402 1400 1399 1397 1395 1393 1391 1389 1387 1384 1382 1379 1376 1373 1370 1367 1364 1361 1358 1354 1351 1350 1346 1342 1339 1336 1333 1330 1326 1323
1407 1406 1406 1405 1404 1403 1401 1400 1399 1397 1396 1394 1392 1390 1388 1386 1384 1382 1379 1377 1374 1371 1368 1365 1363 1360 1357 1354 1349 1345 1343 1339 1336 1332 1329 1326 1323 1320
1403 1402 1402 1401 1400 1399 1398 1397 1395 1394 1393 1391 1390 1388 1386 1384 1382 1379 1377 1374 1372 1369 1366 1363 1360 1358 1355 1351 1347 1343 1340 1337 1333 1330 1326 1323 1320 1317
1398 1398 1397 1397 1396 1395 1394 1393 1392 1390 1389 1388 1386 1385 1383 1381 1379 1377 1375 1372 1370 1367 1364 1361 1358 1355 1352 1349 1345 1341 1337 1334 1331 1328 1325 1323 1320 1316
1394 1394 1393 1393 1392 1391 1390 1389 1388 1387 1386 1385 1383 1382 1380 1378 1376 1375 1373 1370 1368 1365 1362 1359 1356 1353 1351 1348 1344 1340 1336 1332 1329 1326 1324 1322 1319 1317